SCP
-1 -0 -0 -0 -0 0 0 0 -0 0 -0 -0 -0 -0 -0 -0 -0 0 -0 -0 -0 0 0 -0 -0 -0 0 -0 0 -0 -0 0 0 0 0 0 0 0 0 0 0 0 0
-1 -0 -0 0 0 0 0 0 0 0 0 0 0 -0 -0 -0 0 0 -0 0 -0 -0 -0 -0 -0 -0 -0 0 0 0 0 0 0 0 0 0 0 0 0 0 0 0 0
-1 -0 -0 -0 0 0 -0 0 0 0 0 0 0 0 0 0 0 0 0 0 0 0 0 -0 -0 -0 0 0 0 0 0 0 0 0 0 0 0 0 0 0 0 0 0
0 -0 -0 0 0 0 0 0 0 0 0 1 1 1 0 0 0 0 0 0 0 0 0 -0 -0 -0 0 0 0 0 0 0 0 0 0 0 0 0 0 0 0 0 0
0 1 1 1 1 0 1 1 0 1 1 1 1 1 1 0 0 0 0 0 0 0 0 0 0 0 0 0 0 0 0 0 0 0 0 0 0 0 0 0 0 0 0
1 1 1 1 1 0 1 2 1 1 2 1 2 1 1 1 0 -0 0 0 0 0 0 0 0 0 0 0 0 0 0 0 0 0 0 0 0 0 0 0 0 0 0
1 1 1 1 0 0 -0 0 1 1 2 2 1 1 1 1 0 0 -0 0 0 0 0 0 1 1 0 0 0 0 0 0 0 0 0 0 0 0 0 0 0 0 0
1 0 0 0 0 0 0 0 0 0 0 0 0 0 -0 -0 0 0 0 1 1 1 1 1 1 1 1 0 0 0 0 0 0 0 0 0 0 0 0 0 0 0 0
1 0 0 0 0 0 0 0 0 0 0 0 0 0 0 -0 0 0 1 1 1 1 2 2 2 2 0 0 0 0 0 0 0 0 0 0 0 0 0 0 0 0 0
1 0 0 0 0 0 0 0 0 0 0 1 1 0 0 0 1 1 1 2 2 2 2 3 2 3 0 0 0 0 0 0 0 0 0 0 0 0 0 0 0 0 0
0 1 0 0 0 0 0 1 1 1 1 1 1 1 1 1 2 2 1 2 3 3 3 2 2 0 0 0 0 0 0 0 0 0 0 0 0 0 0 0 0 0 0
0 1 1 1 1 1 1 1 1 1 1 1 1 1 1 3 2 2 1 0 2 2 2 1 1 0 0 0 0 0 0 0 0 0 0 0 0 0 0 0 0 0 0
0 0 0 0 1 1 2 2 1 1 1 1 1 0 0 2 2 1 1 0 0 0 1 1 0 0 0 0 0 0 0 0 0 0 0 0 0 0 0 0 0 0 0
0 0 0 0 2 4 4 4 3 2 1 1 1 1 1 1 1 1 0 0 0 0 0 0 0 0 0 0 0 0 0 0 0 0 0 0 0 0 0 0 0 0 0
0 0 0 0 1 2 2 3 3 3 3 2 1 1 1 1 1 1 1 0 0 0 0 0 0 0 0 0 0 0 0 0 0 0 0 0 0 0 0 0 0 0 0
0 1 1 1 1 0 0 0 1 1 0 0 0 0 1 1 2 1 1 0 0 0 0 0 0 0 0 0 0 0 0 0 0 0 0 0 0 0 0 0 0 0 0
2 2 1 0 0 0 0 0 0 0 0 0 0 0 0 1 0 0 0 0 0 0 0 0 0 0 0 0 0 0 0 0 0 0 0 0 0 0 0 0 0 0 0
2 2 2 1 0 0 0 0 0 0 0 0 0 0 0 0 0 0 0 0 0 0 0 0 0 0 0 0 0 0 0 0 0 0 0 0 0 0 0 0 0 0 0
0 0 1 0 0 0 0 0 0 0 0 0 0 0 0 0 0 0 0 0 0 0 0 0 0 0 0 0 0 0 0 0 0 0 0 0 0 0 0 0 0 0 0
-0 -0 -0 0 0 0 0 0 0 0 0 0 0 0 0 0 0 0 0 0 0 0 0 0 0 0 0 0 0 0 0 0 0 0 0 0 0 0 0 0 0 0 0
0 0 0 0 0 0 0 0 0 0 0 0 0 0 0 0 0 0 0 0 0 0 0 0 0 0 0 0 0 0 0 0 0 0 0 0 0 0 0 0 0 0 0
0 0 0 0 0 0 0 0 0 0 0 0 0 0 0 0 0 0 0 0 0 0 0 0 0 0 0 0 0 0 0 0 0 0 0 0 0 0 0 0 0 0 0
0 0 0 0 0 0 0 0 0 0 0 0 0 0 0 0 0 0 0 0 0 0 0 0 0 0 0 0 0 0 0 0 0 0 0 0 0 0 0 0 0 0 0
0 -0 0 0 0 0 0 0 0 0 0 0 0 0 0 0 0 0 0 1 0 0 0 0 0 0 0 0 0 0 0 0 0 0 0 0 0 0 0 0 0 0 0
-0 -0 -0 -0 0 0 0 0 0 0 0 0 0 0 0 0 0 0 0 0 0 0 0 0 0 0 0 0 0 0 0 0 0 0 0 0 0 0 0 0 0 0 0
0 0 -0 -0 -0 0 0 0 0 0 0 0 0 0 0 -0 -0 0 0 0 0 0 0 0 0 0 0 0 0 0 0 0 0 0 0 0 0 0 0 0 0 0 0
Wind_Speed_500mb
54 50 52 53 51 50 49 48 45 40 39 28 30 26 36 34 43 49 41 38 44 38 36 34 33 30 39 42 35 31 37 36 25 18 24 36 34 36 37 34 30 23 17
62 58 53 45 47 47 45 51 47 45 47 41 40 39 37 30 36 46 47 46 45 45 46 42 40 37 38 42 38 30 29 37 35 31 32 42 37 38 35 31 28 24 18
64 57 52 46 40 37 39 30 54 49 51 51 51 47 42 39 38 44 47 50 56 54 50 53 52 46 43 43 46 41 34 39 37 34 34 41 38 45 38 34 32 31 27
66 52 39 40 38 30 27 34 31 46 47 50 54 58 55 49 49 48 48 50 55 61 59 56 54 50 47 42 42 47 49 44 45 43 34 41 44 45 41 34 36 39 35
71 57 53 55 50 40 27 31 34 38 38 43 49 52 53 55 54 54 54 54 52 55 60 63 59 57 50 46 45 43 52 53 49 55 54 48 51 56 52 37 28 42 39
76 67 64 54 41 37 39 56 42 37 46 44 46 54 58 59 59 58 58 62 63 61 61 61 66 63 60 55 50 47 49 52 55 52 49 56 54 57 48 42 29 41 47
75 68 62 48 34 70 54 39 53 45 51 54 44 53 65 69 66 62 60 61 63 64 64 63 65 70 68 67 60 55 55 52 53 56 54 48 63 57 51 51 45 36 44
66 69 62 44 48 62 66 50 50 52 56 50 54 46 70 67 68 69 68 65 65 70 74 74 70 69 74 75 72 67 60 61 56 52 57 56 52 62 62 58 53 41 40
61 63 46 46 49 42 39 41 40 58 64 63 48 58 38 66 69 67 66 66 67 79 83 87 87 83 77 76 79 78 66 65 63 54 48 49 64 62 59 58 66 56 55
52 45 39 40 36 37 36 27 24 21 17 20 38 52 50 61 55 58 57 65 75 77 78 90 89 90 89 83 85 83 75 69 63 62 59 57 55 64 66 62 68 66 66
26 27 27 29 32 35 33 29 28 23 19 19 26 34 38 42 43 48 53 60 66 67 74 77 79 91 94 95 86 80 80 63 60 63 57 55 53 70 70 65 66 68 65
17 19 21 32 41 41 40 39 34 29 28 31 36 40 41 36 36 41 44 55 54 59 66 72 75 72 73 71 75 82 81 68 62 65 59 58 57 64 77 70 66 62 57
55 48 29 41 43 42 42 41 39 39 39 39 36 35 33 36 41 46 49 50 54 59 62 67 70 66 60 53 65 83 71 67 65 61 59 58 56 57 60 60 58 54 52
63 56 67 70 67 52 49 47 49 45 40 38 39 45 43 44 49 41 41 38 42 52 51 52 53 47 49 47 37 45 59 65 64 65 62 53 52 58 56 56 64 64 63
76 84 79 71 72 62 56 53 53 48 39 42 48 48 50 58 60 51 45 41 39 42 36 43 52 54 48 45 51 51 56 59 64 62 57 55 59 54 47 50 60 58 69
54 60 68 68 66 60 51 51 54 49 43 47 48 50 56 62 66 60 53 46 42 49 48 44 50 61 64 63 61 56 55 60 58 60 61 62 64 63 54 57 58 60 64
64 63 66 64 65 57 52 53 55 60 57 56 59 50 45 52 53 62 54 44 45 45 52 47 48 57 67 65 61 63 63 67 58 67 69 69 65 63 59 61 63 64 60
77 79 75 76 73 64 55 55 46 41 49 56 58 57 51 46 54 65 56 46 44 46 50 50 56 59 62 64 69 69 66 67 62 71 75 76 76 72 67 75 66 64 58
61 54 90 86 73 68 49 45 46 51 55 64 59 52 52 49 57 55 57 51 46 46 45 53 62 61 65 66 68 66 67 69 65 73 78 83 87 87 83 72 66 69 72
70 79 96 73 59 58 49 52 50 47 43 47 51 47 43 50 53 51 55 48 45 45 42 46 57 63 66 66 65 62 61 64 65 73 81 87 95 100 101 95 86 79 74
71 53 27 32 48 44 43 40 38 40 43 50 53 54 51 48 39 46 52 53 56 52 48 46 52 60 63 68 69 68 60 62 66 69 73 80 90 98 101 97 93 88 75
30 23 25 14 23 30 30 31 34 42 49 52 54 53 54 52 45 46 52 54 53 52 52 50 52 57 57 60 68 77 74 72 71 73 73 81 86 93 97 103 98 87 86
18 18 23 40 39 36 38 45 51 52 58 63 60 56 57 54 52 52 55 58 60 61 54 53 51 49 52 54 56 65 81 77 76 75 77 79 86 90 96 102 98 92 87
36 38 40 48 47 47 50 51 49 55 55 53 57 61 70 56 53 52 53 58 58 52 52 45 42 44 49 51 53 57 67 74 81 82 85 78 81 87 95 96 94 106 95
51 49 48 56 55 53 49 51 55 56 52 53 60 60 54 52 54 44 51 54 55 46 48 47 53 45 46 44 46 55 56 64 81 89 87 85 81 82 77 84 92 94 90
33 35 45 54 54 57 59 62 61 60 59 58 63 65 58 62 61 63 49 45 47 46 50 51 50 44 47 48 45 47 55 58 65 80 83 84 84 80 69 78 89 97 82
Wind_Direction_500mb
223 226 229 232 236 234 233 231 221 221 229 230 226 244 227 233 226 223 219 217 220 227 230 235 234 221 223 230 236 241 230 226 231 213 217 227 221 223 226 227 239 251 261
223 223 227 235 241 243 237 232 225 224 227 236 229 242 239 232 230 229 224 221 222 226 234 239 243 237 233 232 237 237 226 216 225 221 197 208 214 224 240 240 243 241 237
220 220 228 228 229 241 242 231 224 223 226 230 242 243 246 243 237 234 234 229 229 232 234 237 248 250 242 233 231 233 226 223 228 228 206 207 211 214 220 234 243 238 232
214 204 204 217 219 230 249 242 232 230 229 231 237 245 248 247 242 239 235 234 234 238 242 247 244 251 247 235 231 227 226 225 225 229 211 211 216 221 228 236 235 231 236
207 197 191 199 212 217 229 242 237 236 244 242 241 246 249 247 247 243 242 244 243 240 242 247 249 251 251 243 238 233 226 231 227 226 228 219 218 217 222 239 241 225 226
195 188 184 185 181 201 202 226 225 232 239 240 249 253 256 256 255 251 249 248 248 247 246 246 247 247 249 252 247 238 235 233 235 230 225 228 222 225 230 231 238 206 215
196 192 177 182 240 240 235 229 232 217 219 221 235 255 254 256 258 258 256 254 253 253 253 251 249 250 248 248 249 247 238 236 234 237 234 228 226 233 234 229 229 231 223
202 207 207 211 229 234 231 247 233 240 238 232 246 272 288 258 256 258 256 251 250 255 256 258 258 255 253 251 247 246 240 235 233 227 226 233 231 233 243 245 242 238 220
214 214 221 239 243 234 229 238 245 246 253 252 253 223 237 266 263 261 262 259 252 251 253 258 259 259 258 255 252 253 246 241 236 232 231 227 232 235 240 235 226 214 214
229 252 245 229 237 227 236 235 218 221 228 230 244 256 267 266 265 265 263 261 257 254 253 253 255 255 258 253 253 254 249 237 235 234 225 234 244 242 239 231 228 218 218
250 240 225 210 198 207 211 210 215 225 247 265 264 264 266 267 268 267 266 262 260 261 261 261 257 256 254 259 264 266 266 250 241 226 234 246 254 244 236 229 226 232 229
241 222 231 223 209 210 217 225 232 240 255 264 268 270 272 273 278 270 266 265 266 266 267 268 267 262 258 258 262 262 256 240 237 226 239 257 250 240 236 234 228 228 232
215 218 234 263 248 227 221 235 241 252 262 273 270 274 286 280 285 288 281 273 264 264 269 270 267 267 264 263 257 259 237 239 241 241 257 261 251 239 238 223 221 231 232
224 237 225 242 249 240 239 238 249 257 263 261 262 272 285 288 298 304 299 284 275 273 276 265 259 259 247 251 240 244 245 245 244 245 258 252 246 237 231 228 223 221 222
240 259 236 238 245 243 243 249 253 256 261 261 268 269 271 282 290 291 300 295 283 280 267 261 263 255 244 246 240 239 242 243 246 248 237 238 236 224 221 219 219 227 229
241 234 231 237 245 246 244 253 258 255 253 252 257 265 271 277 279 276 281 285 278 269 274 251 250 253 254 250 242 241 245 249 249 239 234 226 220 221 225 215 209 214 219
236 233 232 239 242 234 241 246 251 248 258 264 269 271 279 277 271 264 268 273 269 265 262 255 259 255 254 252 249 250 251 254 251 239 231 222 216 219 209 209 212 216 220
262 244 246 245 238 232 235 242 248 254 258 260 261 266 271 276 280 263 255 259 263 267 266 248 255 259 259 257 252 252 252 252 243 235 228 222 216 210 211 212 210 220 227
264 295 244 237 231 231 232 240 244 252 266 273 279 284 277 280 277 256 246 255 267 272 266 256 255 260 258 259 257 256 254 251 246 234 229 223 216 213 210 207 213 223 217
299 291 286 267 238 225 233 239 244 260 265 272 277 291 292 284 277 261 247 258 270 273 281 268 260 262 258 261 261 256 249 247 244 235 231 228 224 220 222 229 219 221 225
289 270 265 286 235 237 246 248 246 255 264 269 273 280 284 284 279 265 261 261 264 266 280 281 271 259 263 258 257 253 246 243 243 241 237 230 225 224 222 222 222 225 227
279 242 183 266 261 255 250 251 257 266 274 275 275 282 282 281 277 282 278 273 269 266 276 275 273 263 255 256 252 247 246 245 244 245 240 233 228 225 224 222 223 224 226
265 248 246 258 252 257 263 259 264 266 268 272 276 275 282 282 279 275 277 275 272 271 265 275 275 267 259 256 255 248 245 246 246 248 244 236 231 227 225 225 223 222 225
297 277 269 266 264 263 267 265 269 271 273 269 266 273 276 283 287 286 275 268 268 265 266 269 274 270 268 260 254 252 247 244 245 246 246 244 238 234 229 230 229 219 225
297 289 277 267 266 260 258 264 269 271 275 267 266 275 276 273 274 286 278 270 265 262 267 280 278 270 273 269 257 247 251 247 242 243 242 244 243 242 234 227 225 223 228
353 315 279 262 260 260 262 263 265 269 271 269 270 276 279 284 284 276 287 269 261 261 268 285 276 278 277 267 254 248 247 249 247 244 242 240 240 239 235 228 227 224 226
Wind_Speed_850mb
54 50 52 53 51 50 49 48 45 40 39 28 30 26 36 34 43 49 41 38 44 38 36 34 33 30 39 42 35 31 37 36 25 18 24 36 34 36 37 34 30 23 17
62 58 53 45 47 47 45 51 47 45 47 41 40 39 37 30 36 46 47 46 45 45 46 42 40 37 38 42 38 30 29 37 35 31 32 42 37 38 35 31 28 24 18
64 57 52 46 40 37 39 30 54 49 51 51 51 47 42 39 38 44 47 50 56 54 50 53 52 46 43 43 46 41 34 39 37 34 34 41 38 45 38 34 32 31 27
66 52 39 40 38 30 27 34 31 46 47 50 54 58 55 49 49 48 48 50 55 61 59 56 54 50 47 42 42 47 49 44 45 43 34 41 44 45 41 34 36 39 35
71 57 53 55 50 40 27 31 34 38 38 43 49 52 53 55 54 54 54 54 52 55 60 63 59 57 50 46 45 43 52 53 49 55 54 48 51 56 52 37 28 42 39
76 67 64 54 41 37 39 56 42 37 46 44 46 54 58 59 59 58 58 62 63 61 61 61 66 63 60 55 50 47 49 52 55 52 49 56 54 57 48 42 29 41 47
75 68 62 48 34 70 54 39 53 45 51 54 44 53 65 69 66 62 60 61 63 64 64 63 65 70 68 67 60 55 55 52 53 56 54 48 63 57 51 51 45 36 44
66 69 62 44 48 62 66 50 50 52 56 50 54 46 70 67 68 69 68 65 65 70 74 74 70 69 74 75 72 67 60 61 56 52 57 56 52 62 62 58 53 41 40
61 63 46 46 49 42 39 41 40 58 64 63 48 58 38 66 69 67 66 66 67 79 83 87 87 83 77 76 79 78 66 65 63 54 48 49 64 62 59 58 66 56 55
52 45 39 40 36 37 36 27 24 21 17 20 38 52 50 61 55 58 57 65 75 77 78 90 89 90 89 83 85 83 75 69 63 62 59 57 55 64 66 62 68 66 66
26 27 27 29 32 35 33 29 28 23 19 19 26 34 38 42 43 48 53 60 66 67 74 77 79 91 94 95 86 80 80 63 60 63 57 55 53 70 70 65 66 68 65
17 19 21 32 41 41 40 39 34 29 28 31 36 40 41 36 36 41 44 55 54 59 66 72 75 72 73 71 75 82 81 68 62 65 59 58 57 64 77 70 66 62 57
55 48 29 41 43 42 42 41 39 39 39 39 36 35 33 36 41 46 49 50 54 59 62 67 70 66 60 53 65 83 71 67 65 61 59 58 56 57 60 60 58 54 52
63 56 67 70 67 52 49 47 49 45 40 38 39 45 43 44 49 41 41 38 42 52 51 52 53 47 49 47 37 45 59 65 64 65 62 53 52 58 56 56 64 64 63
76 84 79 71 72 62 56 53 53 48 39 42 48 48 50 58 60 51 45 41 39 42 36 43 52 54 48 45 51 51 56 59 64 62 57 55 59 54 47 50 60 58 69
54 60 68 68 66 60 51 51 54 49 43 47 48 50 56 62 66 60 53 46 42 49 48 44 50 61 64 63 61 56 55 60 58 60 61 62 64 63 54 57 58 60 64
64 63 66 64 65 57 52 53 55 60 57 56 59 50 45 52 53 62 54 44 45 45 52 47 48 57 67 65 61 63 63 67 58 67 69 69 65 63 59 61 63 64 60
77 79 75 76 73 64 55 55 46 41 49 56 58 57 51 46 54 65 56 46 44 46 50 50 56 59 62 64 69 69 66 67 62 71 75 76 76 72 67 75 66 64 58
61 54 90 86 73 68 49 45 46 51 55 64 59 52 52 49 57 55 57 51 46 46 45 53 62 61 65 66 68 66 67 69 65 73 78 83 87 87 83 72 66 69 72
70 79 96 73 59 58 49 52 50 47 43 47 51 47 43 50 53 51 55 48 45 45 42 46 57 63 66 66 65 62 61 64 65 73 81 87 95 100 101 95 86 79 74
71 53 27 32 48 44 43 40 38 40 43 50 53 54 51 48 39 46 52 53 56 52 48 46 52 60 63 68 69 68 60 62 66 69 73 80 90 98 101 97 93 88 75
30 23 25 14 23 30 30 31 34 42 49 52 54 53 54 52 45 46 52 54 53 52 52 50 52 57 57 60 68 77 74 72 71 73 73 81 86 93 97 103 98 87 86
18 18 23 40 39 36 38 45 51 52 58 63 60 56 57 54 52 52 55 58 60 61 54 53 51 49 52 54 56 65 81 77 76 75 77 79 86 90 96 102 98 92 87
36 38 40 48 47 47 50 51 49 55 55 53 57 61 70 56 53 52 53 58 58 52 52 45 42 44 49 51 53 57 67 74 81 82 85 78 81 87 95 96 94 106 95
51 49 48 56 55 53 49 51 55 56 52 53 60 60 54 52 54 44 51 54 55 46 48 47 53 45 46 44 46 55 56 64 81 89 87 85 81 82 77 84 92 94 90
33 35 45 54 54 57 59 62 61 60 59 58 63 65 58 62 61 63 49 45 47 46 50 51 50 44 47 48 45 47 55 58 65 80 83 84 84 80 69 78 89 97 82
Wind_Direction_850mb
223 226 229 232 236 234 233 231 221 221 229 230 226 244 227 233 226 223 219 217 220 227 230 235 234 221 223 230 236 241 230 226 231 213 217 227 221 223 226 227 239 251 261
223 223 227 235 241 243 237 232 225 224 227 236 229 242 239 232 230 229 224 221 222 226 234 239 243 237 233 232 237 237 226 216 225 221 197 208 214 224 240 240 243 241 237
220 220 228 228 229 241 242 231 224 223 226 230 242 243 246 243 237 234 234 229 229 232 234 237 248 250 242 233 231 233 226 223 228 228 206 207 211 214 220 234 243 238 232
214 204 204 217 219 230 249 242 232 230 229 231 237 245 248 247 242 239 235 234 234 238 242 247 244 251 247 235 231 227 226 225 225 229 211 211 216 221 228 236 235 231 236
207 197 191 199 212 217 229 242 237 236 244 242 241 246 249 247 247 243 242 244 243 240 242 247 249 251 251 243 238 233 226 231 227 226 228 219 218 217 222 239 241 225 226
195 188 184 185 181 201 202 226 225 232 239 240 249 253 256 256 255 251 249 248 248 247 246 246 247 247 249 252 247 238 235 233 235 230 225 228 222 225 230 231 238 206 215
196 192 177 182 240 240 235 229 232 217 219 221 235 255 254 256 258 258 256 254 253 253 253 251 249 250 248 248 249 247 238 236 234 237 234 228 226 233 234 229 229 231 223
202 207 207 211 229 234 231 247 233 240 238 232 246 272 288 258 256 258 256 251 250 255 256 258 258 255 253 251 247 246 240 235 233 227 226 233 231 233 243 245 242 238 220
214 214 221 239 243 234 229 238 245 246 253 252 253 223 237 266 263 261 262 259 252 251 253 258 259 259 258 255 252 253 246 241 236 232 231 227 232 235 240 235 226 214 214
229 252 245 229 237 227 236 235 218 221 228 230 244 256 267 266 265 265 263 261 257 254 253 253 255 255 258 253 253 254 249 237 235 234 225 234 244 242 239 231 228 218 218
250 240 225 210 198 207 211 210 215 225 247 265 264 264 266 267 268 267 266 262 260 261 261 261 257 256 254 259 264 266 266 250 241 226 234 246 254 244 236 229 226 232 229
241 222 231 223 209 210 217 225 232 240 255 264 268 270 272 273 278 270 266 265 266 266 267 268 267 262 258 258 262 262 256 240 237 226 239 257 250 240 236 234 228 228 232
215 218 234 263 248 227 221 235 241 252 262 273 270 274 286 280 285 288 281 273 264 264 269 270 267 267 264 263 257 259 237 239 241 241 257 261 251 239 238 223 221 231 232
224 237 225 242 249 240 239 238 249 257 263 261 262 272 285 288 298 304 299 284 275 273 276 265 259 259 247 251 240 244 245 245 244 245 258 252 246 237 231 228 223 221 222
240 259 236 238 245 243 243 249 253 256 261 261 268 269 271 282 290 291 300 295 283 280 267 261 263 255 244 246 240 239 242 243 246 248 237 238 236 224 221 219 219 227 229
241 234 231 237 245 246 244 253 258 255 253 252 257 265 271 277 279 276 281 285 278 269 274 251 250 253 254 250 242 241 245 249 249 239 234 226 220 221 225 215 209 214 219
236 233 232 239 242 234 241 246 251 248 258 264 269 271 279 277 271 264 268 273 269 265 262 255 259 255 254 252 249 250 251 254 251 239 231 222 216 219 209 209 212 216 220
262 244 246 245 238 232 235 242 248 254 258 260 261 266 271 276 280 263 255 259 263 267 266 248 255 259 259 257 252 252 252 252 243 235 228 222 216 210 211 212 210 220 227
264 295 244 237 231 231 232 240 244 252 266 273 279 284 277 280 277 256 246 255 267 272 266 256 255 260 258 259 257 256 254 251 246 234 229 223 216 213 210 207 213 223 217
299 291 286 267 238 225 233 239 244 260 265 272 277 291 292 284 277 261 247 258 270 273 281 268 260 262 258 261 261 256 249 247 244 235 231 228 224 220 222 229 219 221 225
289 270 265 286 235 237 246 248 246 255 264 269 273 280 284 284 279 265 261 261 264 266 280 281 271 259 263 258 257 253 246 243 243 241 237 230 225 224 222 222 222 225 227
279 242 183 266 261 255 250 251 257 266 274 275 275 282 282 281 277 282 278 273 269 266 276 275 273 263 255 256 252 247 246 245 244 245 240 233 228 225 224 222 223 224 226
265 248 246 258 252 257 263 259 264 266 268 272 276 275 282 282 279 275 277 275 272 271 265 275 275 267 259 256 255 248 245 246 246 248 244 236 231 227 225 225 223 222 225
297 277 269 266 264 263 267 265 269 271 273 269 266 273 276 283 287 286 275 268 268 265 266 269 274 270 268 260 254 252 247 244 245 246 246 244 238 234 229 230 229 219 225
297 289 277 267 266 260 258 264 269 271 275 267 266 275 276 273 274 286 278 270 265 262 267 280 278 270 273 269 257 247 251 247 242 243 242 244 243 242 234 227 225 223 228
353 315 279 262 260 260 262 263 265 269 271 269 270 276 279 284 284 276 287 269 261 261 268 285 276 278 277 267 254 248 247 249 247 244 242 240 240 239 235 228 227 224 226